Back to catalog

COSMOS 2256

AliveMilitaryPO
NORAD 22691·PAYLOAD·🇷🇺 Russia

Launched Jun 24, 1993 from Plesetsk Cosmodrome

Loading…

Next Passes (next 24 hours)

TLE

FreshSource: Space-Track

Epoch: Sep 14, 2026, 11:11 UTC

1 22691U 93038E   26257.46603044  .00000038  00000-0  15091-3 0  9992
2 22691  82.5783 154.5390 0007294 135.6488  37.2803 12.63949397533095

Track COSMOS 2256 in real time with AllMySat

Download on the App Store